COSMOS 2251 DEB, 37270

Orbit data source: Space-Track

COSMOS 2251 DEB, 37270 is space debris in LEO originally from a launch on Wed, 16 Jun 1993 UTC launched from the Plesetsk Missile And Space Complex (PKMTR). The debris from Iridium 33, an American commercial communications satellite, has been tracked extensively since its accidental collision with the defunct Russian satellite Cosmos 2251 in 2009. This event, occurring at high speed in low Earth orbit (LEO), generated thousands of pieces of space debris, significantly increasing the risk of further collisions. The Iridium 33 debris cloud has impacted space traffic management and orbital debris mitigation strategies, making it a subject of ongoing study in space situational awareness.

Loading next visibility...
Identifier
37270, 1993-036BHJ
Orbit
LEO
Country
Flag of CISCIS
Related business
Manufacturer
Unknown
Mission
Spacecraft
Bus & Motor
Unknown
Mass
Unknown
Launch date (UTC)
1993-06-16 (33 years ago)
Launch vehicle
Unknown
Launch site
Plesetsk Missile And Space Complex (PKMTR)
Object type
Payload
Rocket body
Debris
Shape & HBR
Unknown shape, 0.1 m
Radar Cross Section
Medium (>0.1 m² and <1 m²)

Expand to show TLE details & history
Last TLE update: 2 days ago

TLE from 2 days ago
0 COSMOS 2251 DEB
1 37270U 93036BHJ 26206.31550846  .00001612  00000-0  12830-2 0  9994
2 37270  73.9337 328.8535 0392455 300.1019  56.1726 13.61399811801243
Epoch: 2026-07-25T07:34Z
TLE epoch observation values (Epoch: 2026-07-25T07:34:19.930Z)
Latitude
-0.00009°
Longitude
-87.75912°
Altitude
879.38 km
Speed
7.489 km/s
True Right ascension
21h 55m 24s
True Declination
0° 00' 00"
Sunlit
Object was in full shadow at epoch
Visualization orbit readout
Latitude
Unknown
Longitude
Unknown
Altitude
Unknown
Speed
Unknown
Apparent Right ascension
Unknown
Apparent Declination
Unknown
Sunlit
N/A
Visualization observer readout
Local Sidereal Time
20:28:54
Azimuth
Unknown
Elevation
Unknown
Doppler factor
Unknown
Orbital elements
Apogee altitude
1,318.99 km
Perigee altitude
737.65 km
Semi-major axis
7,406.457 km
Eccentricity
0.03925
Inclination
73.9337°
RAAN
328.8535°
Arg. of periapsis
300.1019°
True anomaly
60.0104°
Mean anomaly
56.1726°
Eccentric anomaly
58.08121°
Mean motion
3.40508 °/min
Orbital period
105.72 mins
BSTAR
0.001283
Loading maneuver chart data...
Computing Atmospheric mass density...

Documentation

Showing up to 5 results
|